KG7AIQ Weather Reports


time (UTC)temp
C
wind
direction
speed
KPH
gust
KPH
rain 1hr
cm
rain 24hr
cm
rain mn
cm
humidity
%
barometer
mb
20260503070415 11 286 3.2 8.0 0.00 0.10 0.00 76 1015.1
20260503070315 11 286 3.2 8.0 0.00 0.10 0.00 75 1015.2
20260503070215 10 286 3.2 8.0 0.00 0.10 0.00 75 1015.2
20260503070104 10 280 3.2 8.0 0.00 0.10 0.00 75 1015.2
20260503060314 10 289 3.2 8.0 0.00 0.10 0.10 77 1015.6
20260503060215 10 289 3.2 8.0 0.00 0.10 0.10 77 1015.6
20260503060113 10 290 3.2 8.0 0.00 0.10 0.10 77 1015.6
20260503055046 10 276 3.2 3.2 0.00 0.10 0.10 79 1015.8
20260503055042 10 276 1.6 3.2 0.00 0.10 0.10 79 1015.6
20260503055032 10 276 3.2 3.2 0.00 0.10 0.10 79 1015.6
20260503054712 10 276 3.2 3.2 0.00 0.10 0.10 79 1015.8
20260503054708 10 276 3.2 3.2 0.00 0.10 0.10 79 1015.8
20260503054457 10 276 3.2 4.8 0.00 0.10 0.10 79 1015.8
20260503054423 10 276 3.2 4.8 0.00 0.10 0.10 79 1015.8
20260503054355 10 276 3.2 4.8 0.00 0.10 0.10 79 1015.8
20260503054250 10 276 3.2 4.8 0.00 0.10 0.10 79 1015.8
20260503054139 10 276 3.2 6.4 0.03 0.10 0.10 78 1015.8
20260503054135 10 276 3.2 6.4 0.03 0.10 0.10 79 1015.8
20260503053939 10 276 3.2 6.4 0.03 0.10 0.10 79 1015.8
20260503053931 10 276 3.2 6.4 0.03 0.10 0.10 78 1015.8
20260503053821 10 276 3.2 6.4 0.03 0.10 0.10 79 1015.8
20260503053817 10 276 3.2 6.4 0.03 0.10 0.10 78 1015.8
20260503053620 10 276 3.2 6.4 0.03 0.10 0.10 79 1015.8
20260503053616 10 276 3.2 6.4 0.03 0.10 0.10 78 1015.8
20260503053611 10 276 3.2 6.4 0.03 0.10 0.10 79 1015.8
20260503053257 10 276 3.2 6.4 0.03 0.10 0.10 79 1015.9
20260503053157 10 276 3.2 6.4 0.03 0.10 0.10 79 1015.9
20260503053059 10 292 3.2 6.4 0.03 0.10 0.10 79 1015.9
20260503053055 10 292 3.2 6.4 0.03 0.10 0.10 79 1015.9
20260503052911 10 292 3.2 6.4 0.03 0.10 0.10 79 1015.9
20260503052843 10 292 3.2 8.0 0.03 0.10 0.10 79 1015.9
20260503052742 10 292 3.2 8.0 0.03 0.10 0.10 79 1015.9
20260503052652 10 279 3.2 8.0 0.03 0.10 0.10 79 1015.9
20260503052648 10 279 3.2 8.0 0.03 0.10 0.10 79 1015.9
20260503052443 10 277 3.2 8.0 0.03 0.10 0.10 79 1015.9
20260503052408 10 284 3.2 8.0 0.03 0.10 0.10 79 1015.9
20260503052349 10 273 3.2 8.0 0.03 0.10 0.10 79 1015.9
20260503052345 10 281 3.2 8.0 0.03 0.10 0.10 79 1015.9
20260503052133 10 273 3.2 8.0 0.03 0.10 0.10 79 1015.9
20260503052030 10 272 3.2 8.0 0.03 0.10 0.10 79 1015.9
20260503051904 10 280 0.0 8.0 0.03 0.10 0.10 79 1015.9
20260503051825 10 276 0.0 6.4 0.03 0.10 0.10 79 1015.9
20260503051721 10 280 0.0 4.8 0.03 0.10 0.10 79 1015.9
20260503051622 10 280 0.0 4.8 0.03 0.10 0.10 79 1015.9
20260503051529 10 280 0.0 4.8 0.03 0.10 0.10 79 1015.9
20260503051525 10 280 0.0 4.8 0.03 0.10 0.10 79 1015.9
20260503051403 10 279 0.0 4.8 0.03 0.10 0.10 79 1015.9
20260503051329 10 280 0.0 4.8 0.03 0.10 0.10 79 1015.9
20260503051325 10 279 0.0 4.8 0.03 0.10 0.10 79 1015.9
20260503051119 10 279 0.0 3.2 0.03 0.10 0.10 79 1015.9
20260503051029 11 279 3.2 4.8 0.03 0.10 0.10 79 1015.9
20260503051025 11 279 0.0 3.2 0.03 0.10 0.10 79 1015.9
20260503050858 11 279 3.2 6.4 0.03 0.10 0.10 79 1015.9
20260503050817 11 279 3.2 6.4 0.03 0.10 0.10 79 1015.9
20260503050659 11 280 3.2 6.4 0.03 0.10 0.10 79 1015.9
20260503050557 11 279 3.2 6.4 0.03 0.10 0.10 79 1015.9
20260503050500 11 279 3.2 6.4 0.03 0.10 0.10 78 1015.9
20260503050456 11 279 3.2 6.4 0.03 0.10 0.10 79 1015.9
20260503050451 11 280 3.2 6.4 0.03 0.10 0.10 79 1015.9
20260503050306 11 280 3.2 6.4 0.03 0.10 0.10 78 1016.2
20260503050302 11 280 3.2 6.4 0.03 0.10 0.10 78 1016.2
20260503050258 11 279 3.2 6.4 0.03 0.10 0.10 78 1016.2
20260503045947 11 279 3.2 6.4 0.03 0.10 0.10 78 1016.2
20260503045859 11 304 3.2 6.4 0.03 0.10 0.10 79 1016.2
20260503045855 11 252 3.2 6.4 0.03 0.10 0.10 79 1016.2
20260503045850 11 275 3.2 6.4 0.03 0.10 0.10 79 1016.2
20260503045643 11 299 3.2 6.4 0.03 0.10 0.10 79 1016.2
20260503045539 11 259 3.2 3.2 0.03 0.10 0.10 79 1016.2
20260503045437 11 259 3.2 3.2 0.03 0.10 0.10 78 1016.2
20260503045400 11 259 3.2 3.2 0.03 0.10 0.10 78 1016.2
20260503045329 11 259 3.2 3.2 0.03 0.10 0.10 78 1016.2
20260503045219 11 259 3.2 4.8 0.03 0.10 0.10 78 1016.2
20260503045127 11 259 3.2 8.0 0.03 0.10 0.10 78 1016.2
20260503045112 11 259 3.2 4.8 0.03 0.10 0.10 78 1016.2
20260503045001 11 259 3.2 6.4 0.03 0.10 0.10 78 1016.2
20260503044829 11 259 3.2 8.0 0.03 0.10 0.10 78 1016.4
20260503044714 11 259 3.2 8.0 0.03 0.10 0.10 78 1016.4
20260503044615 11 259 3.2 8.0 0.03 0.10 0.10 77 1016.4
20260503044454 11 259 3.2 8.0 0.03 0.10 0.10 77 1016.4
20260503044401 11 259 3.2 8.0 0.03 0.10 0.10 77 1016.4
20260503044353 11 259 3.2 8.0 0.03 0.10 0.10 77 1016.4
20260503044137 11 259 3.2 8.0 0.03 0.10 0.10 77 1016.4
20260503044131 11 258 3.2 8.0 0.00 0.08 0.08 77 1016.4
20260503043928 11 257 0.0 6.4 0.00 0.08 0.08 76 1016.4
20260503043838 11 229 0.0 4.8 0.00 0.08 0.08 75 1016.4
20260503043834 11 236 0.0 6.4 0.00 0.08 0.08 75 1016.4
20260503043830 11 230 0.0 4.8 0.00 0.08 0.08 75 1016.4
20260503043623 11 229 0.0 4.8 0.00 0.08 0.08 75 1016.4
20260503043521 11 229 0.0 3.2 0.00 0.08 0.08 75 1016.4
20260503043504 11 229 0.0 3.2 0.00 0.08 0.08 75 1016.4
20260503043333 11 229 0.0 3.2 0.00 0.08 0.08 75 1016.4
20260503043251 11 229 0.0 3.2 0.00 0.08 0.08 74 1015.8
20260503043149 11 229 0.0 3.2 0.00 0.08 0.08 74 1015.8
20260503043050 11 229 0.0 3.2 0.00 0.08 0.08 74 1015.8
20260503043041 11 229 3.2 3.2 0.00 0.08 0.08 73 1015.8
20260503042835 11 229 3.2 3.2 0.00 0.08 0.08 73 1015.8
20260503042715 11 229 3.2 3.2 0.00 0.08 0.08 73 1015.8
20260503042709 11 229 3.2 3.2 0.00 0.08 0.08 73 1015.8
20260503042442 11 229 3.2 4.8 0.00 0.08 0.08 73 1015.8
20260503042319 11 229 3.2 4.8 0.00 0.08 0.08 73 1015.8
20260503042223 11 229 3.2 4.8 0.00 0.08 0.08 74 1015.8
20260503042120 11 229 3.2 4.8 0.00 0.08 0.08 74 1015.8
20260503041955 11 229 3.2 4.8 0.00 0.08 0.08 74 1015.8
20260503041850 11 229 3.2 4.8 0.00 0.08 0.08 74 1015.8
20260503041814 11 200 3.2 4.8 0.00 0.08 0.08 74 1015.7
20260503041750 11 200 3.2 4.8 0.00 0.08 0.08 74 1015.7
20260503041646 11 200 3.2 4.8 0.00 0.08 0.08 74 1015.7
20260503041543 12 200 3.2 3.2 0.00 0.08 0.08 73 1015.7
20260503041534 11 200 3.2 4.8 0.00 0.08 0.08 73 1015.7
20260503041432 11 200 3.2 3.2 0.00 0.08 0.08 73 1015.7
20260503041417 12 200 3.2 3.2 0.00 0.08 0.08 73 1015.7
20260503041219 12 199 3.2 3.2 0.00 0.08 0.08 73 1015.7
20260503041106 12 199 3.2 3.2 0.00 0.08 0.08 73 1015.7
20260503041002 12 199 0.0 3.2 0.00 0.08 0.08 73 1015.7
20260503040849 12 199 0.0 3.2 0.00 0.08 0.08 73 1015.7
20260503040808 12 199 0.0 3.2 0.00 0.08 0.08 73 1015.7
20260503040750 12 199 0.0 3.2 0.00 0.08 0.08 73 1015.7
20260503040641 12 198 0.0 3.2 0.00 0.08 0.08 72 1015.7
20260503040540 12 198 0.0 3.2 0.00 0.08 0.08 72 1015.7
20260503040529 12 197 0.0 3.2 0.00 0.08 0.08 72 1015.7
20260503040309 12 158 0.0 3.2 0.00 0.08 0.08 72 1015.8
20260503040209 12 158 0.0 3.2 0.00 0.08 0.08 71 1015.8
20260503040039 12 158 3.2 4.8 0.00 0.08 0.08 71 1015.8
20260503035957 12 158 3.2 4.8 0.00 0.08 0.08 72 1015.8
20260503035913 12 158 3.2 4.8 0.00 0.08 0.08 71 1015.8
20260503035740 12 158 3.2 4.8 0.00 0.08 0.08 71 1015.8
20260503035636 12 158 3.2 4.8 0.00 0.08 0.08 71 1015.8
20260503035532 12 158 3.2 4.8 0.00 0.08 0.08 71 1015.8
20260503035439 12 158 3.2 4.8 0.00 0.08 0.08 70 1015.8
20260503035435 12 158 3.2 4.8 0.00 0.08 0.08 70 1015.8
20260503035230 12 158 3.2 4.8 0.00 0.08 0.08 70 1015.8
20260503035130 12 158 3.2 4.8 0.00 0.08 0.08 71 1015.8
20260503035030 12 158 3.2 6.4 0.00 0.08 0.08 71 1015.8
20260503034924 12 158 3.2 6.4 0.00 0.08 0.08 71 1015.8
20260503034829 12 159 3.2 6.4 0.00 0.08 0.08 71 1015.8
20260503034824 12 160 3.2 6.4 0.00 0.08 0.08 72 1015.8
20260503034617 12 160 3.2 6.4 0.00 0.08 0.08 72 1015.8
20260503034524 12 163 3.2 6.4 0.00 0.08 0.08 72 1015.8
20260503034520 12 159 3.2 6.4 0.00 0.08 0.08 71 1015.8
20260503034327 12 165 3.2 6.4 0.00 0.08 0.08 72 1015.8
20260503034323 12 61 3.2 9.7 0.00 0.08 0.08 72 1015.8
20260503034319 12 163 3.2 6.4 0.00 0.08 0.08 71 1015.8
20260503034314 12 163 3.2 6.4 0.00 0.08 0.08 71 1015.8
20260503034005 12 5 3.2 9.7 0.00 0.08 0.08 73 1015.8
20260503033902 12 110 3.2 9.7 0.00 0.08 0.08 73 1015.8
20260503033734 12 110 3.2 9.7 0.00 0.08 0.08 72 1015.8
20260503033644 12 110 3.2 9.7 0.00 0.08 0.08 72 1015.8
20260503033545 12 110 3.2 9.7 0.00 0.08 0.08 72 1015.8
20260503033508 12 110 3.2 9.7 0.00 0.08 0.08 72 1015.7
20260503033428 12 110 3.2 9.7 0.00 0.08 0.08 72 1015.8
20260503033342 12 110 3.2 9.7 0.00 0.08 0.08 72 1015.7
20260503033232 12 173 3.2 9.7 0.00 0.08 0.08 72 1015.7
20260503033228 12 110 3.2 9.7 0.00 0.08 0.08 72 1015.7
20260503033021 12 271 3.2 6.4 0.00 0.08 0.08 72 1015.7
20260503032922 12 242 0.0 6.4 0.00 0.08 0.08 73 1015.7
20260503032819 12 242 0.0 6.4 0.00 0.08 0.08 73 1015.7
20260503032734 12 166 0.0 4.8 0.00 0.08 0.08 74 1015.7
20260503032713 12 176 0.0 4.8 0.00 0.08 0.08 74 1015.7
20260503032612 12 228 0.0 3.2 0.00 0.08 0.08 74 1015.7
20260503032510 12 228 0.0 3.2 0.00 0.08 0.08 74 1015.7
20260503032408 12 228 0.0 3.2 0.00 0.08 0.08 74 1015.7
20260503032233 12 228 0.0 3.2 0.00 0.08 0.08 73 1015.7
20260503032148 12 228 0.0 3.2 0.00 0.08 0.08 73 1015.7
20260503032045 12 228 0.0 3.2 0.00 0.08 0.08 73 1015.7
20260503031932 12 228 0.0 3.2 0.00 0.08 0.08 73 1015.7
20260503031832 12 228 0.0 3.2 0.00 0.08 0.08 72 1015.7
20260503031705 12 228 0.0 3.2 0.00 0.08 0.08 72 1015.5
20260503031603 12 228 0.0 3.2 0.00 0.08 0.08 72 1015.5
20260503031559 12 228 0.0 3.2 0.00 0.08 0.08 72 1015.5
20260503031340 12 228 0.0 3.2 0.00 0.08 0.08 72 1015.5
20260503031227 12 228 0.0 3.2 0.00 0.08 0.08 71 1015.5
20260503031105 12 228 0.0 3.2 0.00 0.08 0.08 71 1015.5
20260503031002 12 228 0.0 3.2 0.00 0.08 0.08 72 1015.5
20260503030951 12 228 0.0 3.2 0.00 0.08 0.08 71 1015.5
20260503030947 12 228 0.0 3.2 0.00 0.08 0.08 71 1015.5
20260503030816 12 228 0.0 3.2 0.00 0.08 0.08 71 1015.5
20260503030615 12 228 0.0 3.2 0.00 0.08 0.08 71 1015.5
20260503030512 12 228 0.0 3.2 0.00 0.08 0.08 71 1015.5
20260503030508 12 228 0.0 3.2 0.00 0.08 0.08 70 1015.5
20260503030255 12 228 0.0 3.2 0.00 0.08 0.08 71 1014.8
20260503030209 12 228 0.0 3.2 0.00 0.08 0.08 71 1014.8
20260503030152 12 228 0.0 3.2 0.00 0.08 0.08 71 1014.8
20260503030052 12 228 0.0 4.8 0.00 0.08 0.08 71 1014.8
20260503030028 12 228 0.0 4.8 0.00 0.08 0.08 71 1014.8
20260503025815 12 228 0.0 4.8 0.00 0.08 0.08 71 1014.8
20260503025716 12 228 0.0 4.8 0.00 0.08 0.08 70 1014.8
20260503025707 12 228 0.0 4.8 0.00 0.08 0.08 70 1014.8
20260503025443 12 228 0.0 4.8 0.00 0.08 0.08 70 1014.8
20260503025328 12 228 0.0 4.8 0.00 0.08 0.08 69 1014.8
20260503025224 12 228 0.0 4.8 0.00 0.08 0.08 69 1014.8
20260503025154 12 228 0.0 4.8 0.00 0.08 0.08 69 1014.8
20260503025122 12 228 0.0 4.8 0.00 0.08 0.08 69 1014.8
20260503025022 12 308 0.0 3.2 0.00 0.08 0.08 70 1014.8
20260503024926 12 308 1.6 8.0 0.00 0.08 0.08 68 1014.8
20260503024922 12 308 1.6 3.2 0.00 0.08 0.08 69 1014.8
20260503024808 12 308 1.6 3.2 0.00 0.08 0.08 69 1014.8
20260503024757 12 308 1.6 8.0 0.00 0.08 0.08 69 1014.8
20260503024556 12 308 1.6 8.0 0.00 0.08 0.08 68 1014.8
20260503024435 12 308 1.6 8.0 0.00 0.08 0.08 68 1014.8
20260503024422 12 308 1.6 8.0 0.00 0.08 0.08 67 1014.8
20260503024406 12 308 1.6 8.0 0.00 0.08 0.08 67 1014.8
20260503024402 12 308 1.6 8.0 0.00 0.08 0.08 68 1014.8
20260503024122 12 308 1.6 8.0 0.00 0.08 0.08 67 1014.8
20260503024016 12 308 1.6 8.0 0.00 0.08 0.08 67 1014.8
20260503023915 12 308 3.2 8.0 0.00 0.08 0.08 68 1014.8
20260503023812 12 308 3.2 8.0 0.00 0.08 0.08 67 1014.8
20260503023704 12 309 3.2 8.0 0.00 0.08 0.08 68 1014.8
20260503023644 12 250 3.2 8.0 0.00 0.08 0.08 67 1014.8
20260503023603 12 276 3.2 8.0 0.00 0.08 0.08 68 1014.8
20260503023459 12 284 3.2 8.0 0.00 0.08 0.08 68 1014.8
20260503023357 12 283 3.2 8.0 0.00 0.08 0.08 68 1014.8
20260503023243 12 284 3.2 8.0 0.00 0.08 0.08 68 1014.8
20260503023139 12 284 3.2 8.0 0.00 0.08 0.08 68 1014.8
20260503023017 12 284 3.2 8.0 0.00 0.08 0.08 67 1014.8
20260503022941 12 292 3.2 8.0 0.00 0.08 0.08 67 1014.8
20260503022913 12 292 3.2 8.0 0.00 0.08 0.08 67 1014.8
20260503022824 12 292 3.2 8.0 0.00 0.08 0.08 67 1014.8
20260503022820 12 309 3.2 6.4 0.00 0.08 0.08 67 1014.8
20260503022815 12 264 3.2 6.4 0.00 0.08 0.08 68 1014.8
20260503022455 12 283 3.2 8.0 0.00 0.08 0.08 67 1014.8
20260503022352 13 282 3.2 8.0 0.00 0.08 0.08 67 1014.8
20260503022252 13 282 3.2 8.0 0.00 0.08 0.08 68 1014.8
20260503022152 13 282 3.2 8.0 0.00 0.08 0.08 68 1014.8
20260503022141 13 268 3.2 8.0 0.00 0.08 0.08 68 1014.8
20260503022102 13 278 3.2 8.0 0.00 0.08 0.08 67 1014.8
20260503022057 13 217 3.2 8.0 0.00 0.08 0.08 67 1014.8
20260503021852 13 299 3.2 8.0 0.00 0.08 0.08 67 1014.8
20260503021752 13 272 3.2 8.0 0.00 0.08 0.08 67 1014.7
20260503021650 13 321 3.2 8.0 0.00 0.08 0.08 68 1014.7
20260503021641 13 248 3.2 8.0 0.00 0.08 0.08 68 1014.7
20260503021550 13 271 3.2 8.0 0.00 0.08 0.08 67 1014.7
20260503021450 13 277 3.2 6.4 0.00 0.08 0.08 68 1014.7
20260503021349 13 303 3.2 6.4 0.00 0.08 0.08 67 1014.7
20260503021255 13 266 3.2 8.0 0.00 0.08 0.08 68 1014.7
20260503021251 13 264 3.2 6.4 0.00 0.08 0.08 67 1014.7
20260503021131 13 266 3.2 8.0 0.00 0.08 0.08 68 1014.7
20260503021047 13 275 4.8 8.0 0.00 0.08 0.08 67 1014.7
20260503021042 13 266 3.2 8.0 0.00 0.08 0.08 67 1014.7
20260503020834 13 275 4.8 8.0 0.00 0.08 0.08 68 1014.7
20260503020731 13 287 4.8 8.0 0.00 0.08 0.08 68 1014.7
20260503020630 13 286 4.8 8.0 0.00 0.08 0.08 68 1014.7
20260503020516 13 287 4.8 8.0 0.00 0.08 0.08 67 1014.7
20260503020408 13 280 4.8 8.0 0.00 0.08 0.08 68 1014.7
20260503020318 13 261 4.8 8.0 0.00 0.08 0.08 68 1014.7
20260503020313 13 314 4.8 8.0 0.00 0.08 0.08 68 1014.7
20260503020108 13 279 4.8 8.0 0.00 0.08 0.08 68 1014.7
20260503020001 13 252 3.2 8.0 0.00 0.08 0.08 68 1014.7
20260503015901 13 264 3.2 8.0 0.00 0.08 0.08 68 1014.7
20260503015850 13 277 3.2 8.0 0.00 0.08 0.08 68 1014.7
20260503015758 13 257 3.2 8.0 0.00 0.08 0.08 68 1014.7
20260503015724 13 277 3.2 8.0 0.00 0.08 0.08 68 1014.7
20260503015539 12 232 3.2 8.0 0.00 0.08 0.08 68 1014.7
20260503015436 12 277 3.2 8.0 0.00 0.08 0.08 68 1014.7
20260503015336 12 211 3.2 8.0 0.00 0.08 0.08 68 1014.7
20260503015233 12 266 3.2 8.0 0.00 0.08 0.08 68 1014.7
20260503015137 12 246 3.2 6.4 0.00 0.08 0.08 70 1014.7
20260503015129 12 251 3.2 8.0 0.00 0.08 0.08 69 1014.7
20260503014933 12 284 3.2 6.4 0.00 0.08 0.08 70 1014.8
20260503014929 12 265 3.2 6.4 0.00 0.08 0.08 70 1014.7
20260503014723 12 284 3.2 6.4 0.00 0.08 0.08 70 1014.8
20260503014618 12 295 3.2 8.0 0.00 0.08 0.08 70 1014.8
20260503014613 12 296 3.2 8.0 0.00 0.08 0.08 70 1014.8
20260503014516 12 245 3.2 8.0 0.00 0.08 0.08 70 1014.8
20260503014415 12 250 3.2 8.0 0.03 0.08 0.08 71 1014.8
20260503014316 12 261 3.2 8.0 0.03 0.08 0.08 70 1014.8
20260503014206 12 257 3.2 8.0 0.03 0.08 0.08 70 1014.8
20260503014106 12 259 3.2 8.0 0.03 0.08 0.08 71 1014.8
20260503013959 12 282 3.2 8.0 0.03 0.08 0.08 71 1014.8
20260503013858 12 282 3.2 8.0 0.08 0.08 0.08 71 1014.8
20260503013758 12 306 3.2 8.0 0.08 0.08 0.08 71 1014.8
20260503013709 12 297 3.2 8.0 0.08 0.08 0.08 71 1014.8
20260503013705 12 291 3.2 8.0 0.08 0.08 0.08 71 1014.8
20260503013700 12 303 3.2 8.0 0.08 0.08 0.08 71 1014.8
20260503013454 12 266 3.2 8.0 0.08 0.08 0.08 71 1014.8
20260503013355 12 279 3.2 6.4 0.08 0.08 0.08 71 1014.8
20260503013254 12 227 3.2 6.4 0.08 0.08 0.08 71 1015.0
20260503013225 12 228 0.0 6.4 0.08 0.08 0.08 72 1015.0
20260503013221 12 250 3.2 6.4 0.08 0.08 0.08 73 1015.0
20260503013215 12 249 3.2 6.4 0.08 0.08 0.08 72 1015.0
20260503013107 12 243 0.0 6.4 0.08 0.08 0.08 73 1015.0
20260503013103 12 248 3.2 6.4 0.08 0.08 0.08 72 1015.0
20260503012750 12 251 0.0 6.4 0.08 0.08 0.08 74 1015.0
20260503012639 12 261 0.0 4.8 0.08 0.08 0.08 76 1015.0
20260503012613 12 261 0.0 4.8 0.08 0.08 0.08 77 1015.0
20260503012535 12 262 0.0 3.2 0.08 0.08 0.08 78 1015.0
20260503012424 12 262 0.0 3.2 0.08 0.08 0.08 78 1015.0
20260503012322 12 262 0.0 3.2 0.08 0.08 0.08 77 1015.0
20260503012316 12 262 0.0 3.2 0.08 0.08 0.08 77 1015.0
20260503012112 12 262 0.0 3.2 0.08 0.08 0.08 76 1015.0
20260503011959 12 262 1.6 3.2 0.08 0.08 0.08 77 1015.0
20260503011850 12 262 1.6 3.2 0.08 0.08 0.08 78 1015.0
20260503011749 12 262 1.6 3.2 0.08 0.08 0.08 78 1015.0
20260503011635 12 262 1.6 3.2 0.08 0.08 0.08 78 1015.0
20260503011543 13 262 1.6 3.2 0.08 0.08 0.08 78 1015.0
20260503011535 12 262 1.6 3.2 0.08 0.08 0.08 78 1015.0
20260503011408 13 262 1.6 3.2 0.08 0.08 0.08 77 1015.0
20260503011317 13 262 1.6 4.8 0.08 0.08 0.08 77 1015.0
20260503011247 13 262 1.6 3.2 0.08 0.08 0.08 77 1015.0
20260503011151 13 262 1.6 3.2 0.08 0.08 0.08 77 1015.0
20260503011042 13 262 3.2 4.8 0.08 0.08 0.08 76 1015.0
20260503011038 13 262 1.6 4.8 0.08 0.08 0.08 77 1015.0
20260503010831 13 262 3.2 4.8 0.08 0.08 0.08 76 1015.0
20260503010712 13 262 3.2 6.4 0.08 0.08 0.08 76 1015.0
20260503010612 13 262 3.2 6.4 0.08 0.08 0.08 75 1015.0
20260503010540 13 262 3.2 6.4 0.08 0.08 0.08 75 1015.0
20260503010500 13 262 3.2 6.4 0.08 0.08 0.08 75 1015.0
20260503010406 13 262 3.2 6.4 0.08 0.08 0.08 74 1015.0
20260503010402 13 262 3.2 6.4 0.08 0.08 0.08 75 1015.0
20260503010156 13 262 3.2 6.4 0.08 0.08 0.08 74 1015.0
20260503010055 13 262 3.2 6.4 0.08 0.08 0.08 73 1015.0
20260503010016 13 262 3.2 6.4 0.08 0.08 0.08 73 1015.0
20260503005952 13 262 3.2 6.4 0.08 0.08 0.08 73 1015.0
20260503005845 13 262 3.2 6.4 0.08 0.08 0.08 72 1015.0
20260503005815 14 291 3.2 6.4 0.08 0.08 0.08 70 1015.0
20260503005744 13 266 3.2 6.4 0.08 0.08 0.08 71 1015.0
20260503005659 14 291 3.2 6.4 0.08 0.08 0.08 69 1015.0
20260503005655 13 271 3.2 6.4 0.08 0.08 0.08 71 1015.0
20260503005649 14 291 3.2 6.4 0.08 0.08 0.08 70 1015.0
20260503005334 14 291 3.2 6.4 0.08 0.08 0.08 68 1015.0
20260503005233 14 294 3.2 6.4 0.08 0.08 0.08 67 1015.0
20260503005132 15 280 3.2 6.4 0.08 0.08 0.08 67 1015.0
20260503005011 15 316 3.2 8.0 0.08 0.08 0.08 65 1015.0
20260503004922 15 316 6.4 9.7 0.08 0.08 0.08 65 1015.0
20260503004816 15 316 6.4 11.3 0.08 0.08 0.08 63 1014.8
20260503004717 15 267 6.4 11.3 0.08 0.08 0.08 61 1014.8
20260503004610 15 266 6.4 11.3 0.08 0.08 0.08 62 1014.8
20260503004556 16 158 6.4 16.1 0.05 0.05 0.05 54 1014.8
20260503004548 16 266 6.4 12.9 0.08 0.08 0.08 59 1014.8
20260503004438 17 139 6.4 16.1 0.05 0.05 0.05 53 1014.8
20260503004434 16 206 6.4 16.1 0.05 0.05 0.08 59 1014.8
20260503004324 17 138 4.8 16.1 0.05 0.05 0.05 53 1014.8
20260503004320 16 165 6.4 16.1 0.05 0.05 0.05 59 1014.8
20260503004315 16 169 6.4 16.1 0.05 0.05 0.05 57 1014.8
20260503003859 17 166 4.8 16.1 0.00 0.00 0.03 52 1014.8
20260503003800 17 173 4.8 16.1 0.00 0.00 0.03 51 1014.8
20260503003659 17 120 4.8 16.1 0.00 0.00 0.00 47 1014.8
20260503003600 17 98 4.8 16.1 0.00 0.00 0.00 45 1014.8
20260503003505 17 145 4.8 16.1 0.00 0.00 0.00 42 1014.8
20260503003459 17 147 4.8 16.1 0.00 0.00 0.00 42 1014.8
20260503003400 17 248 4.8 14.5 0.00 0.00 0.00 41 1014.8
20260503003259 17 186 4.8 14.5 0.00 0.00 0.00 41 1013.8
20260503003207 17 175 4.8 14.5 0.00 0.00 0.00 40 1013.8
20260503003203 17 156 4.8 14.5 0.00 0.00 0.00 41 1013.8
20260503003006 17 126 4.8 14.5 0.00 0.00 0.00 40 1013.8
20260503002957 17 113 3.2 14.5 0.00 0.00 0.00 40 1013.8
20260503002854 17 146 3.2 14.5 0.00 0.00 0.00 40 1013.8
20260503002754 17 157 3.2 14.5 0.00 0.00 0.00 40 1013.8
20260503002655 17 163 3.2 9.7 0.00 0.00 0.00 41 1013.8
20260503002554 17 166 3.2 8.0 0.00 0.00 0.00 40 1013.8
20260503002506 17 157 3.2 8.0 0.00 0.00 0.00 41 1013.8
20260503002455 17 155 3.2 8.0 0.00 0.00 0.00 41 1013.8
20260503002354 17 155 3.2 8.0 0.00 0.00 0.00 41 1013.8
20260503002255 17 173 3.2 8.0 0.00 0.00 0.00 41 1013.8
20260503002154 17 170 3.2 8.0 0.00 0.00 0.00 41 1013.8
20260503002055 18 190 3.2 6.4 0.00 0.00 0.00 43 1013.8
20260503002005 18 186 3.2 6.4 0.00 0.00 0.00 43 1013.8
20260503001954 18 186 3.2 6.4 0.00 0.00 0.00 43 1013.8
20260503001855 18 198 3.2 6.4 0.00 0.00 0.00 43 1013.8
20260503001759 18 186 3.2 6.4 0.00 0.00 0.00 43 1013.6
20260503001755 18 194 3.2 6.4 0.00 0.00 0.00 43 1013.6
20260503001549 18 222 3.2 4.8 0.00 0.00 0.00 43 1013.6
20260503001504 18 175 3.2 4.8 0.00 0.00 0.00 43 1013.6
20260503001449 18 175 3.2 4.8 0.00 0.00 0.00 43 1013.6
20260503001344 18 175 3.2 4.8 0.00 0.00 0.00 44 1013.6
20260503001245 18 175 3.2 4.8 0.00 0.00 0.00 43 1013.6
20260503001141 18 175 3.2 4.8 0.00 0.00 0.00 44 1013.6
20260503001131 18 175 3.2 4.8 0.00 0.00 0.00 44 1013.6
20260503001002 18 174 3.2 4.8 0.00 0.00 0.00 43 1013.6
20260503000915 18 174 3.2 4.8 0.00 0.00 0.00 43 1013.6
20260503000810 18 174 3.2 4.8 0.00 0.00 0.00 42 1013.6
20260503000702 18 168 3.2 4.8 0.00 0.00 0.00 42 1013.6
20260503000559 18 100 3.2 6.4 0.00 0.00 0.00 43 1013.6
20260503000513 18 30 3.2 6.4 0.00 0.00 0.00 43 1013.6
20260503000509 18 30 3.2 6.4 0.00 0.00 0.00 43 1013.6
20260503000504 18 29 3.2 6.4 0.00 0.00 0.00 43 1013.6
20260503000259 18 30 3.2 6.4 0.00 0.00 0.00 43 1013.6
20260503000207 18 29 3.2 12.9 0.00 0.00 0.00 43 1013.6
20260503000204 18 30 3.2 6.4 0.00 0.00 0.00 43 1013.6
20260502235955 18 30 4.8 12.9 0.00 0.00 0.00 42 1013.6
20260502235854 18 29 4.8 12.9 0.00 0.00 0.00 43 1013.6
20260502235752 18 29 4.8 16.1 0.00 0.00 0.00 42 1013.6
20260502235652 18 87 4.8 16.1 0.00 0.00 0.00 42 1013.6
20260502235552 18 5 4.8 16.1 0.00 0.00 0.00 42 1013.6
20260502235452 18 9 4.8 16.1 0.00 0.00 0.00 41 1013.6
20260502235444 18 86 4.8 16.1 0.00 0.00 0.00 41 1013.6
20260502235344 18 68 4.8 16.1 0.00 0.00 0.00 41 1013.6
20260502235245 18 149 4.8 16.1 0.00 0.00 0.00 40 1013.6
20260502235154 18 124 4.8 16.1 0.00 0.00 0.00 39 1013.6
20260502235150 18 162 4.8 16.1 0.00 0.00 0.00 39 1013.6
20260502234951 18 163 4.8 16.1 0.00 0.00 0.00 38 1013.6
20260502234945 18 165 4.8 16.1 0.00 0.00 0.00 39 1013.6
20260502234854 18 184 4.8 8.0 0.00 0.00 0.00 39 1013.1
20260502234850 18 159 4.8 16.1 0.00 0.00 0.00 38 1013.6
20260502234643 18 100 4.8 8.0 0.00 0.00 0.00 39 1013.1
20260502234540 18 194 4.8 8.0 0.00 0.00 0.00 40 1013.1
20260502234450 18 163 4.8 8.0 0.00 0.00 0.00 41 1013.1
20260502234439 18 155 4.8 8.0 0.00 0.00 0.00 41 1013.1
20260502234337 18 224 4.8 8.0 0.00 0.00 0.00 40 1013.1
20260502234227 18 252 4.8 8.0 0.00 0.00 0.00 40 1013.1
20260502234127 18 262 4.8 8.0 0.00 0.00 0.00 39 1013.1
20260502234027 18 263 4.8 8.0 0.00 0.00 0.00 39 1013.1
20260502233948 18 263 4.8 8.0 0.00 0.00 0.00 39 1013.1
20260502233932 18 271 4.8 9.7 0.00 0.00 0.00 39 1013.1
20260502233928 18 262 4.8 8.0 0.00 0.00 0.00 39 1013.1
20260502233722 18 314 4.8 11.3 0.00 0.00 0.00 39 1013.1
20260502233622 18 266 4.8 11.3 0.00 0.00 0.00 39 1013.1
20260502233522 18 250 4.8 11.3 0.00 0.00 0.00 39 1013.1
20260502233446 18 257 4.8 11.3 0.00 0.00 0.00 39 1013.1
20260502233419 18 264 4.8 11.3 0.00 0.00 0.00 39 1013.1
20260502233320 18 231 4.8 11.3 0.00 0.00 0.00 39 1013.1
20260502233219 18 288 4.8 11.3 0.00 0.00 0.00 39 1013.1
20260502233117 18 302 4.8 11.3 0.00 0.00 0.00 39 1013.1
20260502233015 19 277 4.8 11.3 0.00 0.00 0.00 39 1013.1
20260502232943 19 207 6.4 11.3 0.00 0.00 0.00 39 1013.1
20260502232912 19 303 6.4 11.3 0.00 0.00 0.00 39 1013.1
20260502232812 19 286 6.4 9.7 0.00 0.00 0.00 39 1013.1
20260502232713 19 303 6.4 9.7 0.00 0.00 0.00 38 1013.1
20260502232611 19 298 6.4 9.7 0.00 0.00 0.00 38 1013.1
20260502232531 19 265 6.4 9.7 0.00 0.00 0.00 38 1013.1
20260502232527 19 296 6.4 9.7 0.00 0.00 0.00 38 1013.1
20260502232522 19 285 6.4 9.7 0.00 0.00 0.00 38 1013.1
20260502232212 19 329 6.4 9.7 0.00 0.00 0.00 38 1013.1
20260502232121 19 303 6.4 9.7 0.00 0.00 0.00 37 1013.1
20260502232117 19 308 6.4 9.7 0.00 0.00 0.00 37 1013.1
20260502231940 19 274 6.4 9.7 0.00 0.00 0.00 37 1013.1
20260502231912 19 250 6.4 9.7 0.00 0.00 0.00 37 1013.1
20260502231812 20 312 6.4 12.9 0.00 0.00 0.00 37 1013.4
20260502231719 20 276 6.4 12.9 0.00 0.00 0.00 36 1013.4
20260502231715 20 0 6.4 12.9 0.00 0.00 0.00 37 1013.4
20260502231523 20 255 6.4 14.5 0.00 0.00 0.00 36 1013.4
20260502231519 20 264 6.4 12.9 0.00 0.00 0.00 36 1013.4
20260502231514 20 217 6.4 14.5 0.00 0.00 0.00 36 1013.4
20260502231310 20 308 6.4 14.5 0.00 0.00 0.00 36 1013.4
20260502231209 20 257 6.4 14.5 0.00 0.00 0.00 36 1013.4
20260502231107 20 288 6.4 14.5 0.00 0.00 0.00 36 1013.4
20260502231007 20 288 6.4 14.5 0.00 0.00 0.00 36 1013.4
20260502230940 20 289 4.8 14.5 0.00 0.00 0.00 36 1013.4
20260502230917 20 104 4.8 14.5 0.00 0.00 0.00 35 1013.4
20260502230913 20 19 4.8 14.5 0.00 0.00 0.00 35 1013.4
20260502230607 20 87 4.8 14.5 0.00 0.00 0.00 35 1013.4
20260502230507 20 37 4.8 14.5 0.00 0.00 0.00 34 1013.4
20260502230441 20 50 4.8 11.3 0.00 0.00 0.00 34 1013.4
20260502230407 20 276 4.8 11.3 0.00 0.00 0.00 34 1013.4
20260502230316 20 354 4.8 9.7 0.00 0.00 0.00 34 1013.4
20260502230312 20 62 4.8 9.7 0.00 0.00 0.00 34 1013.4
20260502230117 20 218 4.8 9.7 0.00 0.00 0.00 34 1013.4
20260502230113 20 189 4.8 9.7 0.00 0.00 0.00 35 1013.4
20260502225941 21 234 3.2 9.7 0.00 0.00 0.00 33 1013.4
20260502225914 21 276 3.2 9.7 0.00 0.00 0.00 33 1013.4
20260502225909 21 249 3.2 9.7 0.00 0.00 0.00 33 1013.4
20260502225705 21 301 3.2 9.7 0.00 0.00 0.00 33 1013.4
20260502225604 21 323 3.2 9.7 0.00 0.00 0.00 32 1013.4
20260502225455 21 303 3.2 9.7 0.00 0.00 0.00 32 1013.4
20260502225440 21 61 3.2 9.7 0.00 0.00 0.00 31 1013.4
20260502225404 21 28 3.2 8.0 0.00 0.00 0.00 31 1013.4
20260502225400 21 273 3.2 8.0 0.00 0.00 0.00 31 1013.4
20260502225154 21 317 3.2 8.0 0.00 0.00 0.00 31 1013.4
20260502225054 21 316 3.2 8.0 0.00 0.00 0.00 31 1013.4
20260502224955 21 306 3.2 8.0 0.00 0.00 0.00 31 1013.4
20260502224941 21 314 3.2 8.0 0.00 0.00 0.00 31 1013.4
20260502224854 21 282 3.2 6.4 0.00 0.00 0.00 31 1013.4
20260502224754 21 284 3.2 6.4 0.00 0.00 0.00 31 1013.6
20260502224655 21 288 3.2 6.4 0.00 0.00 0.00 31 1013.6
20260502224554 21 288 3.2 6.4 0.00 0.00 0.00 30 1013.6
20260502224440 20 269 3.2 4.8 0.00 0.00 0.00 31 1013.6
20260502224354 20 237 3.2 4.8 0.00 0.00 0.00 31 1013.6
20260502224250 20 180 3.2 8.0 0.00 0.00 0.00 31 1013.6
20260502224144 20 182 3.2 9.7 0.00 0.00 0.00 31 1013.6
20260502224139 20 183 3.2 9.7 0.00 0.00 0.00 32 1013.6
20260502223935 20 183 4.8 9.7 0.00 0.00 0.00 32 1013.6
20260502223824 20 265 4.8 9.7 0.00 0.00 0.00 31 1013.6
20260502223722 20 265 4.8 9.7 0.00 0.00 0.00 31 1013.6
20260502223654 20 64 4.8 9.7 0.00 0.00 0.00 31 1013.6
20260502223622 20 65 4.8 9.7 0.00 0.00 0.00 31 1013.6
20260502223529 20 65 4.8 9.7 0.00 0.00 0.00 31 1013.6
20260502223407 20 64 4.8 9.7 0.00 0.00 0.00 31 1013.6
20260502223254 20 198 4.8 9.7 0.00 0.00 0.00 31 1013.6
20260502223149 20 96 4.8 9.7 0.00 0.00 0.00 31 1013.6
20260502223047 20 253 4.8 12.9 0.00 0.00 0.00 31 1013.6
20260502222945 20 247 6.4 12.9 0.00 0.00 0.00 31 1013.6
20260502222923 20 264 6.4 12.9 0.00 0.00 0.00 31 1013.6
20260502222844 20 294 6.4 12.9 0.00 0.00 0.00 30 1013.6
20260502222744 20 327 6.4 12.9 0.00 0.00 0.00 30 1013.6
20260502222644 20 273 6.4 14.5 0.00 0.00 0.00 30 1013.6
20260502222545 20 279 6.4 16.1 0.00 0.00 0.00 30 1013.6
20260502222444 20 283 6.4 16.1 0.00 0.00 0.00 30 1013.6
20260502222423 20 276 6.4 16.1 0.00 0.00 0.00 30 1013.6
20260502222345 20 274 6.4 20.9 0.00 0.00 0.00 29 1013.6
20260502222253 20 180 6.4 20.9 0.00 0.00 0.00 29 1013.6
20260502222249 20 280 6.4 20.9 0.00 0.00 0.00 29 1013.6
20260502222045 20 308 6.4 20.9 0.00 0.00 0.00 29 1013.6
20260502221944 20 307 3.2 20.9 0.00 0.00 0.00 29 1013.6
20260502221924 20 290 3.2 20.9 0.00 0.00 0.00 28 1013.6
20260502221845 20 238 3.2 20.9 0.00 0.00 0.00 28 1013.6
20260502221744 20 346 3.2 20.9 0.00 0.00 0.00 29 1013.8
20260502221644 20 337 3.2 20.9 0.00 0.00 0.00 30 1013.8
20260502221459 20 200 3.2 9.7 0.00 0.00 0.00 33 1013.8
20260502221455 20 303 3.2 20.9 0.00 0.00 0.00 30 1013.8
20260502221449 20 304 3.2 20.9 0.00 0.00 0.00 32 1013.8
20260502221244 20 238 3.2 9.7 0.00 0.00 0.00 33 1013.8
20260502221145 20 176 3.2 9.7 0.00 0.00 0.00 33 1013.8
20260502221042 20 155 3.2 9.7 0.00 0.00 0.00 33 1013.8
20260502220942 20 154 3.2 9.7 0.00 0.00 0.00 33 1013.8
20260502220924 20 155 3.2 9.7 0.00 0.00 0.00 33 1013.8
20260502220842 20 144 3.2 9.7 0.00 0.00 0.00 33 1013.8
20260502220740 20 144 3.2 9.7 0.00 0.00 0.00 33 1013.8
20260502220638 20 182 3.2 9.7 0.00 0.00 0.00 33 1013.8
20260502220544 20 133 3.2 9.7 0.00 0.00 0.00 33 1013.8
20260502220540 20 158 3.2 9.7 0.00 0.00 0.00 33 1013.8
20260502220423 20 132 3.2 9.7 0.00 0.00 0.00 33 1013.8
20260502220334 20 154 3.2 6.4 0.00 0.00 0.00 34 1013.8
20260502220235 20 162 3.2 6.4 0.00 0.00 0.00 34 1014.2
20260502220124 20 162 3.2 8.0 0.00 0.00 0.00 33 1014.2
20260502220020 20 162 3.2 8.0 0.00 0.00 0.00 33 1014.2
20260502215923 20 161 3.2 8.0 0.00 0.00 0.00 35 1014.2
20260502215914 20 146 3.2 8.0 0.00 0.00 0.00 36 1014.2
20260502215814 20 170 3.2 8.0 0.00 0.00 0.00 35 1014.2
20260502215714 20 170 3.2 8.0 0.00 0.00 0.00 34 1014.2
20260502215612 20 170 3.2 8.0 0.00 0.00 0.00 33 1014.2
20260502215511 20 162 3.2 8.0 0.00 0.00 0.00 33 1014.2
20260502215410 19 161 3.2 8.0 0.00 0.00 0.00 33 1014.2
20260502215309 19 165 3.2 8.0 0.00 0.00 0.00 34 1014.2
20260502215210 19 177 3.2 8.0 0.00 0.00 0.00 33 1014.2
20260502215114 19 122 6.4 11.3 0.00 0.00 0.00 33 1014.2
20260502215110 19 151 3.2 8.0 0.00 0.00 0.00 34 1014.2
20260502214923 19 104 6.4 11.3 0.00 0.00 0.00 33 1014.2
20260502214904 19 185 6.4 11.3 0.00 0.00 0.00 33 1014.2
20260502214805 19 146 6.4 11.3 0.00 0.00 0.00 33 1014.7
20260502214704 19 184 6.4 11.3 0.00 0.00 0.00 34 1014.7
20260502214605 19 102 6.4 12.9 0.00 0.00 0.00 33 1014.7
20260502214454 19 101 6.4 14.5 0.00 0.00 0.00 33 1014.7
20260502214423 19 101 6.4 14.5 0.00 0.00 0.00 33 1014.7
20260502214355 19 101 6.4 14.5 0.00 0.00 0.00 34 1014.7
20260502214251 19 160 6.4 17.7 0.00 0.00 0.00 33 1014.7
20260502214154 19 170 6.4 17.7 0.00 0.00 0.00 32 1014.7
20260502214150 19 164 6.4 17.7 0.00 0.00 0.00 32 1014.7
20260502213955 20 156 8.0 25.7 0.00 0.00 0.00 32 1014.7
20260502213951 19 184 8.0 20.9 0.00 0.00 0.00 32 1014.7
20260502213946 19 183 8.0 25.7 0.00 0.00 0.00 32 1014.7
20260502213752 20 219 8.0 25.7 0.00 0.00 0.00 31 1014.7
20260502213748 20 156 8.0 25.7 0.00 0.00 0.00 32 1014.7
20260502213542 20 110 8.0 25.7 0.00 0.00 0.00 31 1014.7
20260502213442 20 199 8.0 25.7 0.00 0.00 0.00 31 1014.7
20260502213418 20 142 8.0 25.7 0.00 0.00 0.00 31 1014.7
20260502213342 20 56 8.0 25.7 0.00 0.00 0.00 31 1014.7
20260502213242 20 137 8.0 25.7 0.00 0.00 0.00 31 1014.5
20260502213149 20 47 6.4 24.1 0.00 0.00 0.00 31 1014.5
20260502213142 20 156 8.0 25.7 0.00 0.00 0.00 31 1014.5
20260502213133 20 131 6.4 25.7 0.00 0.00 0.00 31 1014.5
20260502213129 20 115 8.0 25.7 0.00 0.00 0.00 30 1014.5
20260502212842 20 137 6.4 24.1 0.00 0.00 0.00 31 1014.5
20260502212742 20 144 6.4 16.1 0.00 0.00 0.00 33 1014.5
20260502212641 20 130 6.4 14.5 0.00 0.00 0.00 33 1014.5
20260502212543 20 166 6.4 14.5 0.00 0.00 0.00 33 1014.5
20260502212440 20 173 6.4 14.5 0.00 0.00 0.00 32 1014.5
20260502212418 20 152 6.4 14.5 0.00 0.00 0.00 32 1014.5
20260502212340 20 148 6.4 14.5 0.00 0.00 0.00 33 1014.5
20260502212239 20 156 6.4 14.5 0.00 0.00 0.00 32 1014.5
20260502212135 20 144 6.4 12.9 0.00 0.00 0.00 32 1014.5
20260502212034 20 174 6.4 16.1 0.00 0.00 0.00 32 1014.5
20260502211948 20 155 4.8 16.1 0.00 0.00 0.00 32 1014.5
20260502211944 20 146 4.8 16.1 0.00 0.00 0.00 33 1014.5
20260502211938 20 137 4.8 16.1 0.00 0.00 0.00 32 1014.5
20260502211735 20 159 4.8 16.1 0.00 0.00 0.00 32 1014.7
20260502211634 20 180 4.8 16.1 0.00 0.00 0.00 32 1014.7
20260502211532 20 148 4.8 16.1 0.00 0.00 0.00 32 1014.7
20260502211455 20 113 4.8 16.1 0.00 0.00 0.00 32 1014.7
20260502211451 20 125 4.8 16.1 0.00 0.00 0.00 32 1014.7
20260502211447 20 168 4.8 16.1 0.00 0.00 0.00 33 1014.7
20260502211442 20 165 4.8 16.1 0.00 0.00 0.00 33 1014.7
20260502211131 20 154 4.8 16.1 0.00 0.00 0.00 32 1014.7
20260502211032 20 134 4.8 9.7 0.00 0.00 0.00 32 1014.7
20260502210931 20 155 4.8 9.7 0.00 0.00 0.00 33 1014.7
20260502210918 20 157 4.8 9.7 0.00 0.00 0.00 33 1014.7
20260502210832 20 168 4.8 9.7 0.00 0.00 0.00 32 1014.7
20260502210732 20 187 4.8 9.7 0.00 0.00 0.00 32 1014.7
20260502210632 20 155 4.8 9.7 0.00 0.00 0.00 33 1014.7
20260502210529 20 130 4.8 9.7 0.00 0.00 0.00 32 1014.7
20260502210443 20 165 4.8 9.7 0.00 0.00 0.00 33 1014.7
20260502210439 20 180 4.8 9.7 0.00 0.00 0.00 32 1014.7
20260502210433 20 168 4.8 9.7 0.00 0.00 0.00 32 1014.7
20260502210227 20 188 4.8 9.7 0.00 0.00 0.00 32 1014.7
20260502210127 20 189 4.8 9.7 0.00 0.00 0.00 33 1014.7
20260502210026 20 177 4.8 9.7 0.00 0.00 0.00 32 1014.7
20260502205923 20 180 3.2 9.7 0.00 0.00 0.00 32 1014.7
20260502205918 20 179 3.2 9.7 0.00 0.00 0.00 32 1014.7
20260502205822 20 160 3.2 9.7 0.00 0.00 0.00 32 1014.7
20260502205738 20 114 3.2 9.7 0.00 0.00 0.00 32 1014.7
20260502205734 20 175 3.2 9.7 0.00 0.00 0.00 32 1014.7
20260502205730 20 147 3.2 9.7 0.00 0.00 0.00 32 1014.7
20260502205420 20 112 3.2 9.7 0.00 0.00 0.00 32 1014.7
20260502205319 20 151 3.2 9.7 0.00 0.00 0.00 32 1014.7
20260502205217 20 164 3.2 9.7 0.00 0.00 0.00 32 1014.7
20260502205112 20 164 3.2 9.7 0.00 0.00 0.00 32 1014.7
20260502205000 20 167 3.2 9.7 0.00 0.00 0.00 32 1014.7
20260502204917 20 147 3.2 6.4 0.00 0.00 0.00 32 1014.7
20260502204859 20 148 3.2 6.4 0.00 0.00 0.00 32 1014.7
20260502204800 20 147 3.2 6.4 0.00 0.00 0.00 33 1014.7
20260502204658 20 89 3.2 6.4 0.00 0.00 0.00 32 1014.7
20260502204606 20 144 3.2 8.0 0.00 0.00 0.00 33 1014.7
20260502204602 20 170 3.2 8.0 0.00 0.00 0.00 32 1014.7
20260502204419 20 137 3.2 8.0 0.00 0.00 0.00 32 1014.7
20260502204355 20 127 3.2 8.0 0.00 0.00 0.00 32 1014.7
20260502204249 20 162 3.2 8.0 0.00 0.00 0.00 33 1014.7
20260502204150 20 156 3.2 9.7 0.00 0.00 0.00 32 1014.7
20260502204049 20 147 3.2 9.7 0.00 0.00 0.00 33 1014.7
20260502204012 20 151 3.2 9.7 0.00 0.00 0.00 32 1014.7
20260502204008 20 147 3.2 9.7 0.00 0.00 0.00 32 1014.7
20260502203958 20 147 3.2 9.7 0.00 0.00 0.00 33 1014.7
20260502203744 20 183 3.2 9.7 0.00 0.00 0.00 32 1014.7
20260502203740 20 145 3.2 9.7 0.00 0.00 0.00 32 1014.7
20260502203441 20 187 3.2 9.7 0.00 0.00 0.00 32 1014.8
20260502203432 20 185 3.2 9.7 0.00 0.00 0.00 32 1014.7
20260502203229 20 78 3.2 8.0 0.00 0.00 0.00 32 1014.8
20260502203225 20 136 3.2 9.7 0.00 0.00 0.00 32 1014.8
20260502203020 20 91 3.2 8.0 0.00 0.00 0.00 32 1014.8
20260502202919 20 159 3.2 8.0 0.00 0.00 0.00 33 1014.8
20260502202815 20 159 3.2 8.0 0.00 0.00 0.00 33 1014.8
20260502202712 20 159 3.2 8.0 0.00 0.00 0.00 33 1014.8
20260502202612 20 161 3.2 8.0 0.00 0.00 0.00 32 1014.8
20260502202512 20 271 3.2 8.0 0.00 0.00 0.00 32 1014.8
20260502202406 20 278 3.2 8.0 0.00 0.00 0.00 31 1014.8
20260502202311 20 127 3.2 8.0 0.00 0.00 0.00 32 1014.8
20260502202214 20 280 3.2 6.4 0.00 0.00 0.00 32 1014.8
20260502202210 20 92 3.2 8.0 0.00 0.00 0.00 33 1014.8
20260502202004 20 280 4.8 9.7 0.00 0.00 0.00 32 1014.8
20260502201905 20 255 4.8 12.9 0.00 0.00 0.00 32 1014.8
20260502201804 20 255 4.8 12.9 0.00 0.00 0.00 32 1014.9
20260502201720 20 269 4.8 12.9 0.00 0.00 0.00 31 1014.9
20260502201715 20 264 4.8 12.9 0.00 0.00 0.00 32 1014.9
20260502201711 20 255 4.8 12.9 0.00 0.00 0.00 32 1014.9
20260502201405 20 312 4.8 12.9 0.00 0.00 0.00 32 1014.9
20260502201359 20 312 4.8 12.9 0.00 0.00 0.00 32 1014.9
20260502201259 20 304 4.8 12.9 0.00 0.00 0.00 32 1014.9
20260502201154 20 153 4.8 12.9 0.00 0.00 0.00 32 1014.9
20260502201103 20 174 4.8 12.9 0.00 0.00 0.00 31 1014.9
20260502201059 20 144 4.8 12.9 0.00 0.00 0.00 31 1014.9
20260502200906 20 154 4.8 8.0 0.00 0.00 0.00 32 1014.9
20260502200852 20 140 4.8 8.0 0.00 0.00 0.00 31 1014.9
20260502200747 20 83 4.8 8.0 0.00 0.00 0.00 33 1014.9
20260502200647 20 161 4.8 8.0 0.00 0.00 0.00 33 1014.9
20260502200557 20 141 4.8 11.3 0.00 0.00 0.00 32 1014.9
20260502200553 20 161 4.8 8.0 0.00 0.00 0.00 33 1014.9
20260502200406 20 137 4.8 11.3 0.00 0.00 0.00 32 1014.9
20260502200347 20 133 4.8 11.3 0.00 0.00 0.00 32 1014.9
20260502200244 20 177 4.8 11.3 0.00 0.00 0.00 32 1015.0
20260502200152 20 76 4.8 11.3 0.00 0.00 0.00 32 1015.0
20260502200148 20 235 4.8 11.3 0.00 0.00 0.00 32 1015.0
20260502195940 20 163 4.8 11.3 0.00 0.00 0.00 32 1015.0
20260502195906 20 164 4.8 11.3 0.00 0.00 0.00 32 1015.0
20260502195839 20 164 4.8 11.3 0.00 0.00 0.00 32 1015.0
20260502195740 20 163 4.8 11.3 0.00 0.00 0.00 32 1015.0
20260502195639 20 164 4.8 11.3 0.00 0.00 0.00 31 1015.0
20260502195537 20 160 4.8 11.3 0.00 0.00 0.00 31 1015.0
20260502195450 20 158 4.8 8.0 0.00 0.00 0.00 31 1015.0
20260502195446 20 162 4.8 8.0 0.00 0.00 0.00 31 1015.0
20260502195441 20 158 4.8 8.0 0.00 0.00 0.00 32 1015.0
20260502195237 20 237 4.8 9.7 0.00 0.00 0.00 32 1015.0
20260502195137 20 253 4.8 14.5 0.00 0.00 0.00 31 1015.0
20260502195037 20 104 4.8 14.5 0.00 0.00 0.00 32 1015.0
20260502194935 20 157 4.8 14.5 0.00 0.00 0.00 32 1015.0
20260502194905 20 195 4.8 14.5 0.00 0.00 0.00 32 1015.0
20260502194834 20 89 4.8 14.5 0.00 0.00 0.00 32 1015.0
20260502194739 21 134 4.8 14.5 0.00 0.00 0.00 31 1015.0
20260502194735 21 243 4.8 14.5 0.00 0.00 0.00 31 1015.0
20260502194530 21 128 4.8 14.5 0.00 0.00 0.00 32 1015.0
20260502194427 21 326 4.8 14.5 0.00 0.00 0.00 31 1015.0
20260502194403 21 321 4.8 14.5 0.00 0.00 0.00 31 1015.0
20260502194327 21 289 4.8 14.5 0.00 0.00 0.00 31 1015.0
20260502194227 21 169 4.8 14.5 0.00 0.00 0.00 31 1015.0
20260502194144 21 176 6.4 8.0 0.00 0.00 0.00 31 1015.0
20260502194140 21 145 4.8 11.3 0.00 0.00 0.00 32 1015.0
20260502194030 21 172 4.8 8.0 0.00 0.00 0.00 31 1015.0
20260502193903 21 161 6.4 8.0 0.00 0.00 0.00 31 1015.0
20260502193825 21 170 6.4 8.0 0.00 0.00 0.00 31 1015.0
20260502193724 21 147 6.4 14.5 0.00 0.00 0.00 31 1015.0
20260502193625 21 146 6.4 14.5 0.00 0.00 0.00 31 1015.0
20260502193534 21 179 6.4 14.5 0.00 0.00 0.00 31 1015.0
20260502193530 21 166 6.4 14.5 0.00 0.00 0.00 32 1015.0
20260502193403 21 179 6.4 14.5 0.00 0.00 0.00 31 1015.0
20260502193322 21 188 6.4 14.5 0.00 0.00 0.00 32 1015.0
20260502193222 21 141 6.4 14.5 0.00 0.00 0.00 31 1015.0
20260502193122 21 121 6.4 14.5 0.00 0.00 0.00 31 1015.0
20260502193022 21 162 6.4 14.5 0.00 0.00 0.00 31 1015.0
20260502192922 21 342 4.8 14.5 0.00 0.00 0.00 31 1015.0
20260502192903 21 139 4.8 14.5 0.00 0.00 0.00 31 1015.0
20260502192823 21 112 4.8 14.5 0.00 0.00 0.00 31 1015.0
20260502192722 21 252 4.8 12.9 0.00 0.00 0.00 30 1015.0
20260502192628 21 283 4.8 12.9 0.00 0.00 0.00 31 1015.0
20260502192624 21 131 4.8 12.9 0.00 0.00 0.00 31 1015.0
20260502192420 21 257 4.8 12.9 0.00 0.00 0.00 31 1015.0
20260502192401 21 252 4.8 12.9 0.00 0.00 0.00 31 1015.0
20260502192317 21 141 4.8 12.9 0.00 0.00 0.00 31 1015.0
20260502192236 21 156 4.8 9.7 0.00 0.00 0.00 31 1015.0
20260502192232 21 80 4.8 9.7 0.00 0.00 0.00 31 1015.0
20260502192228 21 155 4.8 9.7 0.00 0.00 0.00 31 1015.0
20260502191915 21 161 6.4 11.3 0.00 0.00 0.00 30 1015.0
20260502191900 21 154 6.4 12.9 0.00 0.00 0.00 31 1015.0
20260502191814 21 160 6.4 12.9 0.00 0.00 0.00 31 1015.1
20260502191715 21 69 6.4 12.9 0.00 0.00 0.00 33 1015.1
20260502191614 21 68 6.4 12.9 0.00 0.00 0.00 31 1015.1
20260502191522 21 87 6.4 16.1 0.00 0.00 0.00 32 1015.1
20260502191518 21 153 6.4 16.1 0.00 0.00 0.00 32 1015.1
20260502191401 21 109 6.4 16.1 0.00 0.00 0.00 32 1015.1
20260502191317 21 76 6.4 16.1 0.00 0.00 0.00 31 1015.1
20260502191312 21 176 6.4 16.1 0.00 0.00 0.00 32 1015.1
20260502191116 21 55 6.4 19.3 0.00 0.00 0.00 31 1015.1
20260502191112 21 76 6.4 16.1 0.00 0.00 0.00 31 1015.1
20260502190907 21 54 4.8 19.3 0.00 0.00 0.00 31 1015.1
20260502190900 21 49 4.8 19.3 0.00 0.00 0.00 31 1015.1
20260502190816 21 115 4.8 19.3 0.00 0.00 0.00 31 1015.1
20260502190812 21 111 4.8 19.3 0.00 0.00 0.00 31 1015.1
20260502190604 21 24 4.8 19.3 0.00 0.00 0.00 30 1015.1
20260502190505 21 77 4.8 19.3 0.00 0.00 0.00 31 1015.1
20260502190425 21 188 4.8 19.3 0.00 0.00 0.00 31 1015.2
20260502190421 21 144 4.8 19.3 0.00 0.00 0.00 31 1015.1
20260502190415 21 154 4.8 19.3 0.00 0.00 0.00 31 1015.1
20260502190307 21 175 4.8 19.3 0.00 0.00 0.00 31 1015.2
20260502190133 21 174 4.8 9.7 0.00 0.00 0.00 33 1015.2
20260502190012 21 134 4.8 14.5 0.00 0.00 0.00 32 1015.2
20260502190006 21 174 4.8 9.7 0.00 0.00 0.00 33 1015.2
20260502185758 21 172 4.8 11.3 0.00 0.00 0.00 33 1015.2
20260502185651 21 175 4.8 17.7 0.00 0.00 0.00 32 1015.2
20260502185629 21 174 4.8 17.7 0.00 0.00 0.00 33 1015.2
20260502185547 21 166 4.8 17.7 0.00 0.00 0.00 32 1015.2
20260502185504 21 148 4.8 17.7 0.00 0.00 0.00 32 1015.2
20260502185347 21 129 4.8 17.7 0.00 0.00 0.00 33 1015.2
20260502185244 21 69 4.8 17.7 0.00 0.00 0.00 32 1015.2
20260502185137 21 149 4.8 17.7 0.00 0.00 0.00 32 1015.2
20260502185037 21 308 4.8 17.7 0.00 0.00 0.00 32 1015.2
20260502184937 21 74 6.4 17.7 0.00 0.00 0.00 31 1015.2
20260502184859 21 193 6.4 17.7 0.00 0.00 0.00 31 1015.2
20260502184846 21 91 6.4 17.7 0.00 0.00 0.00 31 1015.3
20260502184842 21 164 6.4 17.7 0.00 0.00 0.00 31 1015.2
20260502184637 21 164 6.4 8.0 0.00 0.00 0.00 32 1015.3
20260502184536 21 219 6.4 8.0 0.00 0.00 0.00 33 1015.3
20260502184438 21 173 6.4 12.9 0.00 0.00 0.00 33 1015.3
20260502184402 21 216 6.4 12.9 0.00 0.00 0.00 32 1015.3
20260502184358 21 112 6.4 12.9 0.00 0.00 0.00 33 1015.3
20260502184337 21 158 6.4 12.9 0.00 0.00 0.00 33 1015.3
20260502184239 21 63 6.4 12.9 0.00 0.00 0.00 33 1015.3
20260502184233 21 62 6.4 12.9 0.00 0.00 0.00 33 1015.3
20260502184035 21 62 6.4 12.9 0.00 0.00 0.00 33 1015.3
20260502184003 21 199 6.4 12.9 0.00 0.00 0.00 32 1015.3
20260502183834 21 59 6.4 12.9 0.00 0.00 0.00 32 1015.3
20260502183744 20 134 6.4 12.9 0.00 0.00 0.00 32 1015.3
20260502183740 21 115 6.4 12.9 0.00 0.00 0.00 33 1015.3
20260502183534 21 178 6.4 12.9 0.00 0.00 0.00 32 1015.3
20260502183448 20 140 6.4 14.5 0.00 0.00 0.00 33 1015.3
20260502183444 20 149 6.4 14.5 0.00 0.00 0.00 32 1015.3
20260502183439 20 101 6.4 14.5 0.00 0.00 0.00 33 1015.3
20260502183234 20 126 6.4 14.5 0.00 0.00 0.00 33 1015.5
20260502183132 20 169 6.4 14.5 0.00 0.00 0.00 32 1015.5
20260502183041 20 173 3.2 14.5 0.00 0.00 0.00 32 1015.5
20260502183037 20 190 6.4 14.5 0.00 0.00 0.00 33 1015.5
20260502182858 20 128 3.2 14.5 0.00 0.00 0.00 34 1015.5
20260502182832 20 82 3.2 14.5 0.00 0.00 0.00 33 1015.5
20260502182731 20 154 3.2 14.5 0.00 0.00 0.00 33 1015.5
20260502182632 20 104 3.2 14.5 0.00 0.00 0.00 33 1015.5
20260502182543 20 56 3.2 11.3 0.00 0.00 0.00 33 1015.5
20260502182538 20 148 3.2 14.5 0.00 0.00 0.00 33 1015.5
20260502182358 20 159 3.2 11.3 0.00 0.00 0.00 32 1015.5
20260502182341 20 154 3.2 11.3 0.00 0.00 0.00 33 1015.5
20260502182337 20 135 3.2 11.3 0.00 0.00 0.00 33 1015.5
20260502182132 20 171 3.2 8.0 0.00 0.00 0.00 35 1015.5
20260502182041 20 65 3.2 8.0 0.00 0.00 0.00 35 1015.5
20260502182037 20 66 3.2 8.0 0.00 0.00 0.00 35 1015.5
20260502181855 20 65 3.2 8.0 0.00 0.00 0.00 36 1015.5
20260502181832 20 65 3.2 8.0 0.00 0.00 0.00 36 1015.7
20260502181730 20 55 3.2 6.4 0.00 0.00 0.00 34 1015.7
20260502181630 20 135 3.2 6.4 0.00 0.00 0.00 34 1015.7
20260502181529 20 177 3.2 6.4 0.00 0.00 0.00 34 1015.7
20260502181525 20 178 3.2 6.4 0.00 0.00 0.00 34 1015.7
20260502181354 20 175 3.2 6.4 0.00 0.00 0.00 34 1015.7
20260502181319 20 166 3.2 6.4 0.00 0.00 0.00 34 1015.7
20260502181220 20 58 3.2 6.4 0.00 0.00 0.00 34 1015.7
20260502181114 20 49 3.2 6.4 0.00 0.00 0.00 36 1015.7
20260502181014 20 177 3.2 6.4 0.00 0.00 0.00 35 1015.7
20260502180914 20 181 3.2 6.4 0.00 0.00 0.00 34 1015.7
20260502180857 19 202 3.2 6.4 0.00 0.00 0.00 34 1015.7
20260502180853 20 175 3.2 6.4 0.00 0.00 0.00 34 1015.7
20260502180841 19 262 3.2 6.4 0.00 0.00 0.00 34 1015.7
20260502180838 20 80 3.2 6.4 0.00 0.00 0.00 34 1015.7
20260502180600 19 138 3.2 6.4 0.00 0.00 0.00 34 1015.7
20260502180504 19 133 3.2 6.4 0.00 0.00 0.00 34 1015.7
20260502180459 19 202 3.2 6.4 0.00 0.00 0.00 34 1015.7
20260502180254 19 202 3.2 6.4 0.00 0.00 0.00 35 1015.8
20260502180154 19 117 3.2 6.4 0.00 0.00 0.00 35 1015.8
20260502170439 18 214 3.2 6.4 0.00 0.00 0.00 36 1015.8
20260502170339 18 169 3.2 6.4 0.00 0.00 0.00 36 1015.8
20260502170246 18 143 3.2 8.0 0.00 0.00 0.00 37 1015.9
20260502170242 18 236 3.2 6.4 0.00 0.00 0.00 37 1015.9
20260502164336 17 353 3.2 6.4 0.00 0.00 0.00 38 1015.9
20260502164244 17 353 3.2 6.4 0.00 0.00 0.00 38 1015.9
20260502164238 17 353 3.2 6.4 0.00 0.00 0.00 37 1015.9
20260502164044 17 353 3.2 6.4 0.00 0.00 0.00 39 1015.9
20260502164040 17 353 3.2 6.4 0.00 0.00 0.00 37 1015.9
20260502163848 17 351 3.2 6.4 0.00 0.00 0.00 39 1015.9
20260502163844 17 354 3.2 6.4 0.00 0.00 0.00 39 1015.9
20260502163838 17 351 3.2 6.4 0.00 0.00 0.00 39 1015.9
20260502163640 17 350 3.2 6.4 0.00 0.00 0.00 38 1015.9
20260502163635 17 351 3.2 6.4 0.00 0.00 0.00 39 1015.9
20260502163425 17 190 3.2 6.4 0.00 0.00 0.00 38 1015.9
20260502163326 17 165 3.2 6.4 0.00 0.00 0.00 38 1015.9
20260502163321 17 165 3.2 6.4 0.00 0.00 0.00 39 1015.9
20260502163225 17 165 3.2 6.4 0.00 0.00 0.00 39 1015.9
20260502163119 17 164 3.2 6.4 0.00 0.00 0.00 39 1015.9
20260502163015 17 83 3.2 6.4 0.00 0.00 0.00 40 1015.9
20260502162914 17 176 3.2 6.4 0.00 0.00 0.00 39 1015.9
20260502162826 17 184 3.2 8.0 0.00 0.00 0.00 38 1015.9
20260502162818 17 175 3.2 6.4 0.00 0.00 0.00 39 1015.9
20260502162612 17 44 3.2 8.0 0.00 0.00 0.00 38 1015.9
20260502162509 16 44 3.2 8.0 0.00 0.00 0.00 38 1015.9
20260502162409 16 48 3.2 8.0 0.00 0.00 0.00 38 1015.9
20260502162313 16 48 3.2 8.0 0.00 0.00 0.00 38 1015.9
20260502162254 16 48 3.2 8.0 0.00 0.00 0.00 38 1015.9
20260502162155 16 47 3.2 8.0 0.00 0.00 0.00 39 1015.9
20260502162054 16 47 3.2 8.0 0.00 0.00 0.00 39 1015.9
20260502162004 16 137 3.2 8.0 0.00 0.00 0.00 40 1015.9
20260502162000 16 60 3.2 8.0 0.00 0.00 0.00 40 1015.9
20260502161808 16 137 3.2 8.0 0.00 0.00 0.00 39 1016.0
20260502161755 16 136 3.2 8.0 0.00 0.00 0.00 40 1016.0
20260502161654 16 173 3.2 6.4 0.00 0.00 0.00 40 1016.0
20260502161551 16 182 3.2 6.4 0.00 0.00 0.00 40 1016.0
20260502161444 16 181 3.2 6.4 0.00 0.00 0.00 41 1016.0
20260502161344 16 189 3.2 6.4 0.00 0.00 0.00 40 1016.0
20260502161308 16 189 3.2 6.4 0.00 0.00 0.00 40 1016.0
20260502161244 16 103 3.2 6.4 0.00 0.00 0.00 40 1016.0
20260502161144 16 124 3.2 4.8 0.00 0.00 0.00 40 1016.0
20260502161044 16 124 3.2 4.8 0.00 0.00 0.00 41 1016.0
20260502160939 16 190 3.2 4.8 0.00 0.00 0.00 40 1016.0
20260502160839 16 191 3.2 4.8 0.00 0.00 0.00 41 1016.0
20260502160808 16 191 3.2 4.8 0.00 0.00 0.00 40 1016.0
20260502160749 16 180 3.2 4.8 0.00 0.00 0.00 41 1016.0
20260502160745 16 191 3.2 4.8 0.00 0.00 0.00 40 1016.0
20260502160537 16 179 3.2 4.8 0.00 0.00 0.00 41 1016.0
20260502160436 16 179 3.2 4.8 0.00 0.00 0.00 41 1016.0
20260502160350 16 182 3.2 6.4 0.00 0.00 0.00 40 1016.0
20260502160346 16 181 3.2 4.8 0.00 0.00 0.00 41 1016.0
20260502160341 16 182 3.2 6.4 0.00 0.00 0.00 41 1016.0
20260502160146 16 184 3.2 6.4 0.00 0.00 0.00 40 1016.0
20260502160142 16 186 3.2 6.4 0.00 0.00 0.00 41 1016.0
20260502160138 16 184 3.2 6.4 0.00 0.00 0.00 40 1016.0
20260502152304 13 280 1.6 6.4 0.00 0.00 0.00 41 1015.9
20260502152253 13 280 1.6 4.8 0.00 0.00 0.00 41 1015.9
20260502152202 13 282 1.6 4.8 0.00 0.00 0.00 41 1015.9
20260502152102 13 281 1.6 4.8 0.00 0.00 0.00 43 1015.9
20260502152002 13 281 0.0 4.8 0.00 0.00 0.00 43 1015.9
20260502151902 13 281 0.0 4.8 0.00 0.00 0.00 42 1015.9
20260502151759 13 282 0.0 4.8 0.00 0.00 0.00 42 1015.9
20260502151753 13 281 0.0 4.8 0.00 0.00 0.00 42 1015.9
20260502151659 12 282 0.0 4.8 0.00 0.00 0.00 43 1015.9
20260502151554 12 281 0.0 4.8 0.00 0.00 0.00 42 1015.9
20260502151521 12 282 0.0 4.8 0.00 0.00 0.00 44 1015.9
20260502151455 12 282 0.0 4.8 0.00 0.00 0.00 43 1015.9
20260502151401 12 282 0.0 4.8 0.00 0.00 0.00 43 1015.9
20260502151356 12 282 0.0 4.8 0.00 0.00 0.00 44 1015.9
20260502151200 12 281 0.0 3.2 0.00 0.00 0.00 46 1015.9
20260502151156 12 281 0.0 3.2 0.00 0.00 0.00 45 1015.9
20260502150935 12 281 0.0 3.2 0.00 0.00 0.00 46 1015.9
20260502150814 12 281 0.0 3.2 0.00 0.00 0.00 47 1015.9
20260502150750 11 281 0.0 3.2 0.00 0.00 0.00 47 1015.9
20260502150714 11 281 0.0 3.2 0.00 0.00 0.00 47 1015.9
20260502150633 11 281 0.0 3.2 0.00 0.00 0.00 48 1015.9
20260502150629 11 281 0.0 3.2 0.00 0.00 0.00 47 1015.9
20260502150519 11 281 0.0 3.2 0.00 0.00 0.00 47 1015.9
20260502150314 11 281 0.0 3.2 0.00 0.00 0.00 48 1015.8
20260502150219 11 281 0.0 3.2 0.00 0.00 0.00 51 1015.8
20260502150215 11 281 0.0 3.2 0.00 0.00 0.00 48 1015.8
20260502140128 8 282 3.2 4.8 0.00 0.00 0.00 54 1015.3
20260502130700 8 282 3.2 4.8 0.00 0.00 0.00 48 1015.1
20260502130553 8 282 3.2 4.8 0.00 0.00 0.00 48 1015.1
20260502130459 8 282 3.2 4.8 0.00 0.00 0.00 48 1015.1
20260502130451 8 282 3.2 4.8 0.00 0.00 0.00 48 1015.1
20260502130234 8 282 3.2 4.8 0.00 0.00 0.00 48 1015.1
20260502130134 8 282 3.2 4.8 0.00 0.00 0.00 48 1015.1
20260502123738 8 282 3.2 6.4 0.00 0.00 0.00 47 1015.1
20260502123636 8 282 3.2 4.8 0.00 0.00 0.00 48 1015.1
20260502123537 8 282 3.2 4.8 0.00 0.00 0.00 48 1015.1
20260502123505 8 282 3.2 4.8 0.00 0.00 0.00 48 1015.1
20260502123435 8 282 3.2 6.4 0.00 0.00 0.00 48 1015.1
20260502123332 8 282 3.2 6.4 0.00 0.00 0.00 47 1015.1
20260502123236 8 282 3.2 6.4 0.00 0.00 0.00 47 1015.0
20260502123228 8 282 3.2 6.4 0.00 0.00 0.00 47 1015.0
20260502123128 8 282 3.2 6.4 0.00 0.00 0.00 47 1015.0
20260502123111 8 282 3.2 6.4 0.00 0.00 0.00 47 1015.0
20260502122924 8 282 3.2 6.4 0.00 0.00 0.00 47 1015.0
20260502122916 8 282 3.2 6.4 0.00 0.00 0.00 47 1015.0
20260502122709 8 282 3.2 6.4 0.00 0.00 0.00 47 1015.0
20260502122607 8 282 3.2 6.4 0.00 0.00 0.00 47 1015.0
20260502122506 8 282 3.2 6.4 0.00 0.00 0.00 47 1015.0
20260502122404 8 282 3.2 4.8 0.00 0.00 0.00 47 1015.0
20260502122306 8 282 3.2 4.8 0.00 0.00 0.00 47 1015.0
20260502122205 8 282 3.2 4.8 0.00 0.00 0.00 47 1015.0
20260502122104 8 282 3.2 4.8 0.00 0.00 0.00 48 1015.0
20260502122005 8 282 3.2 4.8 0.00 0.00 0.00 48 1015.0
20260502121959 8 282 3.2 4.8 0.00 0.00 0.00 48 1015.0
20260502121854 8 282 3.2 4.8 0.00 0.00 0.00 47 1015.0
20260502121746 8 282 3.2 6.4 0.00 0.00 0.00 47 1015.1
20260502121646 8 282 3.2 6.4 0.00 0.00 0.00 47 1015.1
20260502121544 8 282 3.2 6.4 0.00 0.00 0.00 47 1015.1
20260502121505 8 282 3.2 6.4 0.00 0.00 0.00 47 1015.1
20260502121453 8 282 3.2 6.4 0.00 0.00 0.00 47 1015.1
20260502121449 8 282 3.2 6.4 0.00 0.00 0.00 47 1015.1
20260502121242 8 282 3.2 6.4 0.00 0.00 0.00 46 1015.1
20260502121237 8 282 3.2 6.4 0.00 0.00 0.00 46 1015.1
20260502121128 8 282 3.2 6.4 0.00 0.00 0.00 46 1015.1
20260502121111 8 282 3.2 6.4 0.00 0.00 0.00 46 1015.1
20260502120911 8 282 3.2 6.4 0.00 0.00 0.00 46 1015.1
20260502120831 8 281 3.2 4.8 0.00 0.00 0.00 47 1015.0
20260502120827 8 281 3.2 4.8 0.00 0.00 0.00 47 1015.1
20260502120823 8 282 3.2 6.4 0.00 0.00 0.00 46 1015.1
20260502120713 8 282 3.2 6.4 0.00 0.00 0.00 47 1015.1
20260502120708 8 282 3.2 6.4 0.00 0.00 0.00 47 1015.1
20260502120558 8 282 3.2 6.4 0.00 0.00 0.00 47 1015.1
20260502120554 8 281 3.2 6.4 0.00 0.00 0.00 47 1015.1
20260502120139 8 281 3.2 4.8 0.00 0.00 0.00 47 1015.0
20260502115924 8 281 3.2 4.8 0.00 0.00 0.00 47 1015.0
20260502115811 8 281 3.2 4.8 0.00 0.00 0.00 47 1015.0
20260502115704 8 281 3.2 3.2 0.00 0.00 0.00 46 1015.0
20260502115602 8 281 3.2 3.2 0.00 0.00 0.00 46 1015.0
20260502115519 8 281 3.2 3.2 0.00 0.00 0.00 46 1015.0
20260502115511 8 281 3.2 3.2 0.00 0.00 0.00 47 1015.0
20260502115401 8 281 3.2 3.2 0.00 0.00 0.00 46 1015.0
20260502115156 8 281 3.2 3.2 0.00 0.00 0.00 46 1015.0
20260502115054 8 281 3.2 3.2 0.00 0.00 0.00 46 1015.0
20260502114947 8 281 3.2 3.2 0.00 0.00 0.00 46 1015.0
20260502114854 8 281 3.2 3.2 0.00 0.00 0.00 46 1015.0
20260502114754 8 281 3.2 3.2 0.00 0.00 0.00 46 1015.0
20260502114643 8 281 3.2 4.8 0.00 0.00 0.00 46 1015.0
20260502114542 8 281 3.2 4.8 0.00 0.00 0.00 46 1015.0
20260502114436 8 281 3.2 4.8 0.00 0.00 0.00 45 1015.0
20260502114331 8 281 3.2 4.8 0.00 0.00 0.00 45 1015.0
20260502114210 8 281 3.2 4.8 0.00 0.00 0.00 45 1015.0
20260502114109 8 281 3.2 4.8 0.00 0.00 0.00 45 1015.0
20260502114006 8 281 3.2 4.8 0.00 0.00 0.00 45 1015.0
20260502113938 8 281 3.2 4.8 0.00 0.00 0.00 45 1015.0
20260502113854 8 281 3.2 4.8 0.00 0.00 0.00 45 1015.0
20260502113739 8 281 3.2 4.8 0.00 0.00 0.00 45 1015.0
20260502113730 8 281 3.2 4.8 0.00 0.00 0.00 45 1015.0
20260502113726 8 281 3.2 6.4 0.00 0.00 0.00 44 1015.0
20260502113525 8 281 3.2 4.8 0.00 0.00 0.00 44 1015.0
20260502113404 8 281 3.2 6.4 0.00 0.00 0.00 44 1015.1
20260502113400 8 281 3.2 6.4 0.00 0.00 0.00 45 1015.1
20260502113355 8 281 3.2 6.4 0.00 0.00 0.00 44 1015.0
20260502113041 8 281 3.2 6.4 0.00 0.00 0.00 45 1015.1
20260502112913 8 281 3.2 6.4 0.00 0.00 0.00 44 1015.1
20260502112901 8 281 3.2 6.4 0.00 0.00 0.00 44 1015.1
20260502112801 8 281 3.2 6.4 0.00 0.00 0.00 44 1015.1
20260502112650 8 281 3.2 6.4 0.00 0.00 0.00 44 1015.1
20260502112644 8 281 3.2 4.8 0.00 0.00 0.00 44 1015.1
20260502112549 8 281 3.2 6.4 0.00 0.00 0.00 44 1015.1
20260502112518 8 281 3.2 4.8 0.00 0.00 0.00 45 1015.1
20260502112336 8 281 3.2 4.8 0.00 0.00 0.00 44 1015.1
20260502112229 8 281 3.2 6.4 0.00 0.00 0.00 45 1015.1
20260502112129 8 281 3.2 6.4 0.00 0.00 0.00 45 1015.1
20260502112026 8 281 3.2 6.4 0.00 0.00 0.00 45 1015.1
20260502112018 8 281 3.2 6.4 0.00 0.00 0.00 44 1015.1
20260502111853 8 281 3.2 6.4 0.00 0.00 0.00 45 1015.1
20260502111848 8 281 3.2 6.4 0.00 0.00 0.00 45 1015.0
20260502111808 8 281 3.2 6.4 0.00 0.00 0.00 44 1015.0
20260502111723 8 281 3.2 6.4 0.00 0.00 0.00 44 1015.0
20260502111556 8 281 3.2 6.4 0.00 0.00 0.00 44 1015.0
20260502111500 8 281 3.2 6.4 0.00 0.00 0.00 44 1015.0
20260502111456 8 281 3.2 6.4 0.00 0.00 0.00 44 1015.0
20260502111451 8 281 3.2 6.4 0.00 0.00 0.00 45 1015.0
20260502111141 8 281 3.2 6.4 0.00 0.00 0.00 45 1015.0
20260502111112 8 280 3.2 4.8 0.00 0.00 0.00 44 1015.0
20260502111100 9 280 3.2 4.8 0.00 0.00 0.00 44 1015.0
20260502111056 8 281 3.2 4.8 0.00 0.00 0.00 44 1015.0
20260502110946 8 281 3.2 4.8 0.00 0.00 0.00 44 1015.0
20260502110837 9 280 3.2 4.8 0.00 0.00 0.00 44 1015.0
20260502110632 9 281 3.2 4.8 0.00 0.00 0.00 44 1015.0
20260502110533 9 280 3.2 4.8 0.00 0.00 0.00 44 1015.0
20260502110528 9 280 3.2 4.8 0.00 0.00 0.00 44 1015.0
20260502110337 9 280 3.2 4.8 0.00 0.00 0.00 44 1015.0
20260502110324 9 281 3.2 4.8 0.00 0.00 0.00 44 1015.0
20260502110232 9 280 3.2 4.8 0.00 0.00 0.00 44 1015.0
20260502110228 9 280 3.2 4.8 0.00 0.00 0.00 44 1015.0
20260502110016 9 280 3.2 4.8 0.00 0.00 0.00 44 1015.0
20260502105909 9 280 3.2 4.8 0.00 0.00 0.00 43 1015.0
20260502105808 9 280 3.2 4.8 0.00 0.00 0.00 43 1015.0
20260502105646 9 280 3.2 4.8 0.00 0.00 0.00 43 1015.0
20260502105544 9 280 3.2 4.8 0.00 0.00 0.00 43 1015.0
20260502105539 9 280 3.2 4.8 0.00 0.00 0.00 43 1015.0
20260502105345 9 280 3.2 4.8 0.00 0.00 0.00 43 1015.0
20260502105336 9 280 3.2 4.8 0.00 0.00 0.00 43 1015.0
20260502105126 9 280 3.2 4.8 0.00 0.00 0.00 43 1015.0
20260502105027 9 280 3.2 4.8 0.00 0.00 0.00 43 1015.0
20260502104911 9 280 3.2 4.8 0.00 0.00 0.00 43 1015.0
20260502104810 9 281 3.2 4.8 0.00 0.00 0.00 43 1015.0
20260502104806 9 280 3.2 4.8 0.00 0.00 0.00 43 1015.0
20260502104701 9 280 3.2 4.8 0.00 0.00 0.00 43 1015.0
20260502104600 9 280 3.2 4.8 0.00 0.00 0.00 42 1015.0
20260502104449 9 280 3.2 4.8 0.00 0.00 0.00 42 1015.0
20260502104344 9 280 3.2 4.8 0.00 0.00 0.00 42 1015.0
20260502104308 9 280 3.2 4.8 0.00 0.00 0.00 41 1015.0
20260502104244 9 280 3.2 4.8 0.00 0.00 0.00 41 1015.0
20260502104144 9 280 3.2 4.8 0.00 0.00 0.00 41 1015.0
20260502104044 9 280 3.2 4.8 0.00 0.00 0.00 41 1015.0
20260502103928 9 280 3.2 4.8 0.00 0.00 0.00 42 1015.0
20260502103814 9 280 3.2 4.8 0.00 0.00 0.00 41 1015.0
20260502103807 9 281 3.2 4.8 0.00 0.00 0.00 41 1015.0
20260502103713 9 280 3.2 4.8 0.00 0.00 0.00 42 1015.0
20260502103612 9 280 3.2 4.8 0.00 0.00 0.00 42 1015.0
20260502103500 10 280 3.2 4.8 0.00 0.00 0.00 42 1015.0
20260502103456 10 280 3.2 4.8 0.00 0.00 0.00 42 1015.0
20260502103308 10 280 3.2 4.8 0.00 0.00 0.00 42 1014.9
20260502103250 10 280 3.2 4.8 0.00 0.00 0.00 42 1014.9
20260502103141 10 280 3.2 4.8 0.00 0.00 0.00 42 1014.9
20260502103042 10 280 3.2 4.8 0.00 0.00 0.00 42 1014.9
20260502102941 10 280 3.2 4.8 0.00 0.00 0.00 42 1014.9
20260502102839 10 280 3.2 4.8 0.00 0.00 0.00 42 1014.9
20260502102805 10 280 3.2 4.8 0.00 0.00 0.00 42 1014.9
20260502102720 10 280 3.2 4.8 0.00 0.00 0.00 42 1014.9
20260502102617 10 280 3.2 4.8 0.00 0.00 0.00 42 1014.9
20260502102516 10 280 3.2 4.8 0.00 0.00 0.00 41 1014.9
20260502102504 10 280 3.2 4.8 0.00 0.00 0.00 41 1014.9
20260502102313 10 280 3.2 4.8 0.00 0.00 0.00 40 1014.9
20260502102308 10 280 3.2 4.8 0.00 0.00 0.00 41 1014.9
20260502102306 10 280 3.2 4.8 0.00 0.00 0.00 41 1014.9
20260502102048 10 280 3.2 4.8 0.00 0.00 0.00 40 1014.9
20260502101946 10 280 3.2 4.8 0.00 0.00 0.00 40 1014.9
20260502101845 10 280 3.2 4.8 0.00 0.00 0.00 40 1014.9
20260502101743 10 280 3.2 4.8 0.00 0.00 0.00 40 1014.9
20260502101707 10 280 3.2 4.8 0.00 0.00 0.00 40 1014.9
20260502101600 10 280 3.2 4.8 0.00 0.00 0.00 39 1014.9
20260502101524 10 280 3.2 4.8 0.00 0.00 0.00 40 1014.9
20260502101443 10 280 3.2 4.8 0.00 0.00 0.00 39 1014.9
20260502101439 10 280 3.2 4.8 0.00 0.00 0.00 40 1014.9
20260502101434 10 280 3.2 4.8 0.00 0.00 0.00 40 1014.9
20260502101119 10 280 3.2 3.2 0.00 0.00 0.00 39 1014.9
20260502101001 10 280 3.2 3.2 0.00 0.00 0.00 39 1014.9
20260502100856 10 280 3.2 3.2 0.00 0.00 0.00 39 1014.9
20260502100756 10 280 3.2 3.2 0.00 0.00 0.00 39 1014.9
20260502100742 10 280 3.2 3.2 0.00 0.00 0.00 38 1014.9
20260502100656 10 280 3.2 4.8 0.00 0.00 0.00 38 1014.9
20260502100552 10 280 3.2 4.8 0.00 0.00 0.00 39 1014.9
20260502100546 10 280 3.2 4.8 0.00 0.00 0.00 39 1014.9
20260502100346 10 280 3.2 4.8 0.00 0.00 0.00 40 1014.9
20260502100341 10 280 3.2 4.8 0.00 0.00 0.00 39 1015.0
20260502100225 10 280 3.2 4.8 0.00 0.00 0.00 39 1015.0
20260502100221 10 280 3.2 4.8 0.00 0.00 0.00 39 1015.0
20260502091450 10 280 3.2 6.4 0.00 0.00 0.00 39 1015.3
20260502091342 10 280 3.2 6.4 0.00 0.00 0.00 39 1015.3
20260502091241 10 280 3.2 6.4 0.00 0.00 0.00 39 1015.3
20260502091139 10 280 3.2 6.4 0.00 0.00 0.00 40 1015.3
20260502091031 10 280 3.2 6.4 0.00 0.00 0.00 38 1015.3
20260502090921 10 280 3.2 4.8 0.00 0.00 0.00 39 1015.3
20260502090819 10 280 3.2 4.8 0.00 0.00 0.00 39 1015.3
20260502090717 10 280 3.2 3.2 0.00 0.00 0.00 39 1015.3
20260502090638 10 280 3.2 3.2 0.00 0.00 0.00 40 1015.3
20260502090606 10 280 3.2 3.2 0.00 0.00 0.00 39 1015.3
20260502090458 10 279 3.2 3.2 0.00 0.00 0.00 39 1015.3
20260502090354 11 280 3.2 3.2 0.00 0.00 0.00 39 1015.3
20260502090250 11 280 3.2 3.2 0.00 0.00 0.00 39 1015.6
20260502090136 11 280 3.2 3.2 0.00 0.00 0.00 40 1015.6
20260502071426 12 276 3.2 4.8 0.00 0.00 0.00 42 1016.0
20260502071419 12 276 3.2 4.8 0.00 0.00 0.00 41 1016.0
20260502071314 12 276 3.2 4.8 0.00 0.00 0.00 41 1016.0
20260502071300 12 276 3.2 4.8 0.00 0.00 0.00 41 1016.0
20260502071106 12 276 3.2 4.8 0.00 0.00 0.00 41 1016.0
20260502071029 12 277 3.2 4.8 0.00 0.00 0.00 42 1016.0
20260502070903 12 276 3.2 4.8 0.00 0.00 0.00 42 1016.0
20260502070756 12 276 3.2 4.8 0.00 0.00 0.00 42 1016.0
20260502070644 12 276 3.2 4.8 0.00 0.00 0.00 42 1016.0
20260502070541 12 276 3.2 4.8 0.00 0.00 0.00 42 1016.0
20260502070452 12 276 3.2 4.8 0.00 0.00 0.00 42 1016.0
20260502070443 12 276 3.2 4.8 0.00 0.00 0.00 42 1016.0